Weather History for KLNS - January, 2004

Change the Weather History Date:

Tuesday, January 20, 2004

  Actual Average Record
Temperature  
Mean Temperature 22 °F -  
Max Temperature 26 °F 36 °F 61 °F (2006)
Min Temperature 15 °F 21 °F 0 °F (1984)
Degree Days  
Heating Degree Days 44    
Moisture  
Dew Point 9 °F    
Average Humidity 58    
Maximum Humidity 68    
Minimum Humidity 49    
Precipitation  
Precipitation 0.00 in - - ()
Sea Level Pressure  
Sea Level Pressure 30.05 in    
Wind  
Wind Speed 16 mph (WNW)    
Max Wind Speed 23 mph    
Max Gust Speed 30 mph    
Visibility 10 miles    
Events      
Averages and records for this station are not official NWS values.
T = Trace of Precipitation, MM = Missing Value Source: NWS Daily Summary

Daily Weather History Graph

Daily Weather History Graph

Search for Another Location

Airport or City:

Trip Planner

Search our weather history database for the weather conditions in past years. The results will help you decide how hot, cold, wet, or windy it might be!

Date:

Astronomy

Jan. 20, 2004 Rise Set
Actual Time 7:23 AM EST 5:09 PM EST
Civil Twilight 6:53 AM EST 5:38 PM EST
Nautical Twilight 6:20 AM EST 6:11 PM EST
Astronomical Twilight 5:48 AM EST 6:44 PM EST
Moon 6:39 AM EST (1/20) 3:38 PM EST (1/20)
Length of Visible Light 10h 44m
Length of Day
9h 45m
Waning Crescent, 2% of the Moon is Illuminated
Jan 20
Waning Crescent
Jan 21
New
Jan 29
First Quarter
Feb 6
Full
Feb 13
Last Quarter

Hourly Weather History & Observations

Time (EST) Temp. Windchill Dew Point Humidity Pressure Visibility Wind Dir Wind Speed Gust Speed Precip Events Conditions
12:53 AM 21.9 °F 8.2 °F 10.0 °F 60% 29.93 in 10.0 mi WNW 16.1 mph - N/A   Overcast
1:53 AM 21.9 °F 9.8 °F 10.0 °F 60% 29.94 in 10.0 mi West 12.7 mph - N/A   Overcast
2:53 AM 21.9 °F 8.7 °F 10.9 °F 63% 29.95 in 10.0 mi West 15.0 mph - N/A   Overcast
3:53 AM 21.9 °F 9.2 °F 10.0 °F 60% 29.95 in 10.0 mi West 13.8 mph - N/A   Overcast
4:53 AM 19.9 °F 7.9 °F 10.0 °F 65% 29.96 in 10.0 mi West 11.5 mph - N/A   Mostly Cloudy
5:53 AM 21.0 °F 7.6 °F 10.9 °F 65% 29.97 in 10.0 mi West 15.0 mph - N/A   Mostly Cloudy
6:53 AM 21.9 °F 7.8 °F 9.0 °F 58% 29.99 in 10.0 mi WNW 17.3 mph - N/A   Mostly Cloudy
7:53 AM 21.9 °F 6.9 °F 12.0 °F 66% 30.01 in 10.0 mi WNW 19.6 mph - N/A   Overcast
8:53 AM 23.0 °F 8.0 °F 10.9 °F 60% 30.03 in 10.0 mi WNW 20.7 mph 26.5 mph N/A   Overcast
9:53 AM 23.0 °F 8.3 °F 10.9 °F 60% 30.05 in 10.0 mi WNW 19.6 mph - N/A   Mostly Cloudy
10:53 AM 24.1 °F 9.4 °F 10.0 °F 55% 30.06 in 10.0 mi WNW 20.7 mph 28.8 mph N/A   Partly Cloudy
11:53 AM 25.0 °F 9.9 °F 10.0 °F 53% 30.05 in 10.0 mi WNW 23.0 mph 29.9 mph N/A   Partly Cloudy
12:53 PM 25.0 °F 10.6 °F 10.9 °F 55% 30.05 in 10.0 mi West 20.7 mph 27.6 mph N/A   Scattered Clouds
1:53 PM 26.1 °F 11.3 °F 12.0 °F 55% 30.04 in 10.0 mi WNW 23.0 mph 29.9 mph N/A   Scattered Clouds
2:53 PM 26.1 °F 13.1 °F 10.0 °F 51% 30.06 in 10.0 mi West 17.3 mph - N/A   Clear
3:53 PM 26.1 °F 12.3 °F 9.0 °F 49% 30.08 in 10.0 mi WNW 19.6 mph 23.0 mph N/A   Clear
4:53 PM 24.1 °F 10.6 °F 9.0 °F 53% 30.09 in 10.0 mi West 17.3 mph - N/A   Clear
5:53 PM 23.0 °F 10.6 °F 8.1 °F 53% 30.11 in 10.0 mi West 13.8 mph - N/A   Clear
6:53 PM 21.9 °F 8.2 °F 9.0 °F 58% 30.12 in 10.0 mi West 16.1 mph - N/A   Clear
7:53 PM 21.0 °F 9.3 °F 8.1 °F 57% 30.12 in 10.0 mi WNW 11.5 mph - N/A   Clear
8:53 PM 19.9 °F 8.6 °F 8.1 °F 60% 30.14 in 10.0 mi West 10.4 mph - N/A   Clear
9:53 PM 19.0 °F 6.1 °F 8.1 °F 62% 30.15 in 10.0 mi WNW 12.7 mph - N/A   Clear
10:53 PM 17.1 °F 6.6 °F 3.9 °F 56% 30.16 in 10.0 mi WNW 8.1 mph - N/A   Clear
11:53 PM 15.1 °F 1.8 °F 6.1 °F 68% 30.18 in 10.0 mi WNW 11.5 mph - N/A   Clear